Time,TemperatureF,DewpointF,PressureIn,WindDirection,WindDirectionDegrees,WindSpeedMPH,WindSpeedGustMPH,Humidity,HourlyPrecipIn,Conditions,Clouds,dailyrainin,SoftwareType,DateUTC
2013-08-14 00:11:00,63.0,57.0,29.69,WSW,258,0.0,2.0,81,0.00,,,0.00,,2013-08-14 08:11:00,
2013-08-14 00:21:00,63.0,57.0,29.70,WSW,258,0.0,1.0,81,0.00,,,0.00,,2013-08-14 08:21:00,
2013-08-14 00:42:00,62.0,56.0,29.70,WSW,258,0.0,0.0,81,0.00,,,0.00,,2013-08-14 08:42:00,
2013-08-14 00:51:00,62.0,56.0,29.70,WSW,258,0.0,0.0,82,0.00,,,0.00,,2013-08-14 08:51:00,
2013-08-14 01:11:00,61.0,56.0,29.70,WSW,258,0.0,1.0,84,0.00,,,0.00,,2013-08-14 09:11:00,
2013-08-14 01:21:00,61.0,56.0,29.70,WSW,258,0.0,1.0,84,0.00,,,0.00,,2013-08-14 09:21:00,
2013-08-14 01:43:00,59.0,54.0,29.70,WSW,258,0.0,0.0,85,0.00,,,0.00,,2013-08-14 09:43:00,
2013-08-14 01:53:00,59.0,55.0,29.70,WSW,258,0.0,1.0,87,0.00,,,0.00,,2013-08-14 09:53:00,
2013-08-14 02:11:00,59.0,55.0,29.70,WSW,258,0.0,1.0,87,0.00,,,0.00,,2013-08-14 10:11:00,
2013-08-14 02:22:00,58.0,54.0,29.70,WSW,257,0.0,1.0,87,0.00,,,0.00,,2013-08-14 10:22:00,
2013-08-14 02:42:00,57.0,53.0,29.70,WSW,257,0.0,0.0,87,0.00,,,0.00,,2013-08-14 10:42:00,
2013-08-14 02:52:00,57.0,54.0,29.70,WSW,257,0.0,0.0,89,0.00,,,0.00,,2013-08-14 10:52:00,
2013-08-14 03:11:00,57.0,54.0,29.71,WSW,258,0.0,1.0,89,0.00,,,0.00,,2013-08-14 11:11:00,
2013-08-14 03:21:00,56.0,53.0,29.70,WSW,257,0.0,0.0,89,0.00,,,0.00,,2013-08-14 11:21:00,
2013-08-14 03:42:00,56.0,53.0,29.70,WSW,258,0.0,0.0,89,0.00,,,0.00,,2013-08-14 11:42:00,
2013-08-14 03:51:00,55.0,52.0,29.70,WSW,258,0.0,0.0,91,0.00,,,0.00,,2013-08-14 11:51:00,
2013-08-14 04:11:00,55.0,52.0,29.70,WSW,257,0.0,0.0,90,0.00,,,0.00,,2013-08-14 12:11:00,
2013-08-14 04:21:00,55.0,52.0,29.70,WSW,257,0.0,1.0,90,0.00,,,0.00,,2013-08-14 12:21:00,
2013-08-14 04:42:00,54.0,51.0,29.70,WSW,257,0.0,0.0,90,0.00,,,0.00,,2013-08-14 12:42:00,
2013-08-14 04:52:00,54.0,51.0,29.70,WSW,257,0.0,0.0,91,0.00,,,0.00,,2013-08-14 12:52:00,
2013-08-14 05:11:00,54.0,52.0,29.70,WSW,257,0.0,0.0,93,0.00,,,0.00,,2013-08-14 13:11:00,
2013-08-14 05:21:00,55.0,53.0,29.70,WSW,258,0.0,0.0,93,0.00,,,0.00,,2013-08-14 13:21:00,
2013-08-14 05:41:00,55.0,53.0,29.71,WSW,257,0.0,0.0,92,0.00,,,0.00,,2013-08-14 13:41:00,
2013-08-14 05:52:00,55.0,53.0,29.72,WSW,258,0.0,1.0,92,0.00,,,0.00,,2013-08-14 13:52:00,
2013-08-14 06:01:00,55.0,53.0,29.72,WSW,258,0.0,1.0,92,0.00,,,0.00,,2013-08-14 14:01:00,
2013-08-14 06:11:00,55.0,53.0,29.72,WSW,258,0.0,1.0,92,0.00,,,0.00,,2013-08-14 14:11:00,
2013-08-14 06:21:00,54.0,52.0,29.72,WSW,258,0.0,0.0,92,0.00,,,0.00,,2013-08-14 14:21:00,
2013-08-14 06:42:00,54.0,52.0,29.72,WSW,258,0.0,0.0,93,0.00,,,0.00,,2013-08-14 14:42:00,
2013-08-14 06:52:00,54.0,52.0,29.73,WSW,258,0.0,1.0,94,0.00,,,0.00,,2013-08-14 14:52:00,
2013-08-14 07:11:00,54.0,52.0,29.73,WSW,258,0.0,0.0,93,0.00,,,0.00,,2013-08-14 15:11:00,
2013-08-14 07:22:00,54.0,52.0,29.74,WSW,258,0.0,1.0,93,0.00,,,0.00,,2013-08-14 15:22:00,
2013-08-14 07:43:00,55.0,53.0,29.74,WSW,258,0.0,1.0,94,0.00,,,0.00,,2013-08-14 15:43:00,
2013-08-14 07:56:00,56.0,54.0,29.74,ESE,110,0.0,2.0,94,0.00,,,0.00,,2013-08-14 15:56:00,
2013-08-14 08:13:00,56.0,54.0,29.74,ESE,110,0.0,1.0,94,0.00,,,0.00,,2013-08-14 16:13:00,
2013-08-14 08:25:00,57.0,55.0,29.75,ESE,110,0.0,0.0,94,0.00,,,0.00,,2013-08-14 16:25:00,
2013-08-14 08:43:00,58.0,55.0,29.75,ESE,110,0.0,1.0,91,0.00,,,0.00,,2013-08-14 16:43:00,
2013-08-14 08:58:00,59.0,55.0,29.75,North,360,0.0,3.0,87,0.00,,,0.00,,2013-08-14 16:58:00,
2013-08-14 09:20:00,60.0,56.0,29.75,NNW,331,0.0,1.0,86,0.00,,,0.00,,2013-08-14 17:20:00,
2013-08-14 09:28:00,60.0,55.0,29.75,East,97,0.0,5.0,83,0.00,,,0.00,,2013-08-14 17:28:00,
2013-08-14 09:44:00,61.0,55.0,29.76,East,80,0.0,5.0,81,0.00,,,0.00,,2013-08-14 17:44:00,
2013-08-14 09:55:00,62.0,56.0,29.76,ESE,114,0.0,1.0,80,0.00,,,0.00,,2013-08-14 17:55:00,
2013-08-14 10:23:00,64.0,-99.9,29.76,NE,52,0.0,3.0,77,0.00,,,0.00,,2013-08-14 18:23:00,
2013-08-14 10:57:00,-999.0,-99.9,29.77,South,169,0.0,3.0,-999,-99.99,,,-99.99,,2013-08-14 18:57:00,
2013-08-14 11:12:00,63.0,55.0,29.78,NE,52,1.0,4.0,76,0.00,,,0.00,,2013-08-14 19:12:00,
2013-08-14 11:42:00,63.0,55.0,29.78,WSW,257,0.0,3.0,74,0.00,,,0.00,,2013-08-14 19:42:00,
2013-08-14 11:53:00,63.0,55.0,29.78,NE,39,0.0,2.0,74,0.00,,,0.00,,2013-08-14 19:53:00,
2013-08-14 12:11:00,63.0,55.0,29.78,East,91,0.0,5.0,75,0.00,,,0.00,,2013-08-14 20:11:00,
2013-08-14 12:52:00,64.0,56.0,29.78,North,10,0.0,2.0,74,0.00,,,0.00,,2013-08-14 20:52:00,
2013-08-14 13:13:00,64.0,56.0,29.78,NE,53,0.0,3.0,74,0.00,,,0.00,,2013-08-14 21:13:00,
2013-08-14 13:23:00,65.0,56.0,29.78,East,79,0.0,3.0,73,0.00,,,0.00,,2013-08-14 21:23:00,
2013-08-14 13:45:00,65.0,56.0,29.78,ENE,63,0.0,4.0,73,0.00,,,0.00,,2013-08-14 21:45:00,
2013-08-14 13:55:00,66.0,56.0,29.78,ENE,74,0.0,6.0,70,0.00,,,0.00,,2013-08-14 21:55:00,
2013-08-14 14:13:00,67.0,56.0,29.77,NNE,30,1.0,7.0,69,0.00,,,0.00,,2013-08-14 22:13:00,
2013-08-14 14:23:00,67.0,56.0,29.77,NNW,338,0.0,5.0,67,0.00,,,0.00,,2013-08-14 22:23:00,
2013-08-14 14:54:00,68.0,57.0,29.77,East,79,1.0,6.0,67,0.00,,,0.00,,2013-08-14 22:54:00,
2013-08-14 15:13:00,68.0,56.0,29.77,East,99,2.0,5.0,66,0.00,,,0.00,,2013-08-14 23:13:00,
2013-08-14 15:24:00,67.0,56.0,29.77,NE,36,0.0,3.0,67,0.00,,,0.00,,2013-08-14 23:24:00,
2013-08-14 15:46:00,67.0,55.0,29.76,NNW,327,0.0,8.0,66,0.00,,,0.00,,2013-08-14 23:46:00,
2013-08-14 15:56:00,67.0,55.0,29.76,SE,144,0.0,5.0,65,0.00,,,0.00,,2013-08-14 23:56:00,
2013-08-14 16:12:00,67.0,55.0,29.76,SE,134,0.0,5.0,65,0.00,,,0.00,,2013-08-15 00:12:00,
2013-08-14 16:22:00,67.0,54.0,29.75,ENE,72,0.0,4.0,63,0.00,,,0.00,,2013-08-15 00:22:00,
2013-08-14 16:43:00,68.0,55.0,29.75,ENE,69,0.0,3.0,63,0.00,,,0.00,,2013-08-15 00:43:00,
2013-08-14 16:52:00,67.0,54.0,29.75,ESE,107,0.0,3.0,62,0.00,,,0.00,,2013-08-15 00:52:00,
2013-08-14 17:16:00,67.0,54.0,29.75,SE,127,0.0,3.0,64,0.00,,,0.00,,2013-08-15 01:16:00,
2013-08-14 17:22:00,67.0,54.0,29.74,ENE,59,0.0,2.0,63,0.00,,,0.00,,2013-08-15 01:22:00,
2013-08-14 17:42:00,67.0,54.0,29.74,East,82,0.0,3.0,64,0.00,,,0.00,,2013-08-15 01:42:00,
2013-08-14 17:52:00,67.0,54.0,29.74,NNE,32,0.0,1.0,63,0.00,,,0.00,,2013-08-15 01:52:00,
2013-08-14 18:11:00,67.0,54.0,29.74,SSE,148,0.0,3.0,64,0.00,,,0.00,,2013-08-15 02:11:00,
2013-08-14 18:21:00,67.0,55.0,29.73,North,349,0.0,1.0,65,0.00,,,0.00,,2013-08-15 02:21:00,
2013-08-14 19:11:00,67.0,54.0,29.72,ENE,67,0.0,3.0,64,0.00,,,0.00,,2013-08-15 03:11:00,
2013-08-14 19:22:00,66.0,54.0,29.72,East,96,0.0,6.0,65,0.00,,,0.00,,2013-08-15 03:22:00,
2013-08-14 19:43:00,66.0,54.0,29.72,East,96,0.0,1.0,65,0.00,,,0.00,,2013-08-15 03:43:00,
2013-08-14 19:53:00,65.0,54.0,29.72,East,96,0.0,1.0,67,0.00,,,0.00,,2013-08-15 03:53:00,
2013-08-14 20:12:00,65.0,54.0,29.72,East,96,0.0,1.0,68,0.00,,,0.00,,2013-08-15 04:12:00,
2013-08-14 20:22:00,64.0,54.0,29.72,SE,145,0.0,2.0,69,0.00,,,0.00,,2013-08-15 04:22:00,
2013-08-14 20:43:00,63.0,53.0,29.72,SE,144,0.0,2.0,70,0.00,,,0.00,,2013-08-15 04:43:00,
2013-08-14 20:52:00,63.0,53.0,29.72,SSE,155,0.0,1.0,71,0.00,,,0.00,,2013-08-15 04:52:00,
2013-08-14 21:12:00,62.0,53.0,29.73,SSE,155,0.0,1.0,72,0.00,,,0.00,,2013-08-15 05:12:00,
2013-08-14 21:22:00,62.0,53.0,29.73,SSE,155,0.0,1.0,72,0.00,,,0.00,,2013-08-15 05:22:00,
2013-08-14 21:42:00,62.0,53.0,29.73,SSE,155,0.0,0.0,73,0.00,,,0.00,,2013-08-15 05:42:00,
2013-08-14 21:52:00,62.0,53.0,29.73,SSE,155,0.0,1.0,73,0.00,,,0.00,,2013-08-15 05:52:00,
2013-08-14 22:11:00,62.0,53.0,29.73,SSE,155,0.0,1.0,73,0.00,,,0.00,,2013-08-15 06:11:00,
2013-08-14 22:21:00,61.0,53.0,29.73,SE,136,0.0,2.0,75,0.00,,,0.00,,2013-08-15 06:21:00,
2013-08-14 22:42:00,60.0,52.0,29.74,SE,136,0.0,0.0,76,0.00,,,0.00,,2013-08-15 06:42:00,
2013-08-14 22:51:00,60.0,53.0,29.74,SE,136,0.0,0.0,77,0.00,,,0.00,,2013-08-15 06:51:00,
2013-08-14 23:11:00,59.0,52.0,29.74,SE,136,0.0,0.0,78,0.00,,,0.00,,2013-08-15 07:11:00,
2013-08-14 23:21:00,59.0,52.0,29.74,SE,136,0.0,0.0,78,0.00,,,0.00,,2013-08-15 07:21:00,
2013-08-14 23:42:00,57.0,52.0,29.75,SE,136,0.0,0.0,82,0.00,,,0.00,,2013-08-15 07:42:00,
2013-08-14 23:52:00,56.0,52.0,29.75,SE,136,0.0,1.0,85,0.00,,,0.00,,2013-08-15 07:52:00,